FIN46J ENGM-EGCC

Flight info

Callsign FIN46J
Flight time 1h 24m
Altitude 36000
Route ATLA9B ATLAP DCT IPMOD DCT ALOTI DCT TILNI TILN2M
Aircraft A321/M-SDE3FGHIRWY/LB1

Departure

Time 2026-05-05 11:31
Airport Oslo-Gardermoen International Airport (ENGM)

Arrival

Time 2026-05-05 12:55
Airport Manchester Airport (EGCC)
Time Latitude Longitude Altitude Speed Heading
2026-05-05 11:07 60.19299 11.10568 679 ft 0 kts 16°
2026-05-05 11:09 60.19299 11.10569 679 ft 0 kts 17°
2026-05-05 11:20 60.19290 11.10563 679 ft 3 kts 18°
2026-05-05 11:20 60.19272 11.10550 679 ft 3 kts 29°
2026-05-05 11:21 60.19257 11.10529 677 ft 3 kts 72°
2026-05-05 11:21 60.19255 11.10503 677 ft 0 kts 102°
2026-05-05 11:23 60.19253 11.10515 683 ft 2 kts 105°
2026-05-05 11:24 60.19247 11.10557 682 ft 4 kts 108°
2026-05-05 11:24 60.19237 11.10621 685 ft 6 kts 105°
2026-05-05 11:24 60.19225 11.10706 685 ft 7 kts 105°
2026-05-05 11:24 60.19210 11.10812 685 ft 9 kts 106°
2026-05-05 11:25 60.19192 11.10938 685 ft 10 kts 106°
2026-05-05 11:25 60.19172 11.11070 685 ft 8 kts 115°
2026-05-05 11:25 60.19116 11.11104 684 ft 10 kts 191°
2026-05-05 11:25 60.19039 11.11060 683 ft 13 kts 197°
2026-05-05 11:26 60.18950 11.11009 683 ft 14 kts 195°
2026-05-05 11:26 60.18852 11.10954 683 ft 15 kts 195°
2026-05-05 11:26 60.18746 11.10894 683 ft 16 kts 196°
2026-05-05 11:26 60.18631 11.10827 682 ft 18 kts 196°
2026-05-05 11:27 60.18507 11.10752 682 ft 19 kts 196°
2026-05-05 11:27 60.18372 11.10675 681 ft 21 kts 197°
2026-05-05 11:27 60.18229 11.10593 678 ft 22 kts 195°
2026-05-05 11:27 60.18077 11.10506 679 ft 23 kts 196°
2026-05-05 11:28 60.17917 11.10414 678 ft 25 kts 196°
2026-05-05 11:28 60.17778 11.10343 678 ft 12 kts 188°
2026-05-05 11:28 60.17729 11.10429 677 ft 11 kts 109°
2026-05-05 11:28 60.17709 11.10572 679 ft 11 kts 105°
2026-05-05 11:29 60.17690 11.10714 680 ft 11 kts 105°
2026-05-05 11:29 60.17677 11.10829 678 ft 5 kts 79°
2026-05-05 11:29 60.17702 11.10855 680 ft 0 kts 13°
2026-05-05 11:30 60.17713 11.10860 680 ft 7 kts 14°
2026-05-05 11:30 60.17958 11.10996 678 ft 74 kts 16°
2026-05-05 11:30 60.18678 11.11411 684 ft 139 kts 16°
2026-05-05 11:31 60.19752 11.12052 932 ft 169 kts 13°
2026-05-05 11:31 60.20824 11.12994 1789 ft 174 kts 37°
2026-05-05 11:31 60.21422 11.15134 2329 ft 187 kts 72°
2026-05-05 11:31 60.21686 11.17816 2713 ft 202 kts 79°
2026-05-05 11:32 60.21881 11.20660 3262 ft 207 kts 81°
2026-05-05 11:32 60.22088 11.23631 3584 ft 223 kts 80°
2026-05-05 11:32 60.22329 11.26791 4027 ft 232 kts 81°
2026-05-05 11:32 60.22422 11.30062 4628 ft 241 kts 84°
2026-05-05 11:33 60.22572 11.33488 4979 ft 250 kts 83°
2026-05-05 11:33 60.23050 11.36975 5270 ft 268 kts 57°
2026-05-05 11:33 60.24285 11.39675 5590 ft 267 kts 29°
2026-05-05 11:33 60.26003 11.40924 5918 ft 263 kts
2026-05-05 11:34 60.27797 11.40576 6463 ft 259 kts 338°
2026-05-05 11:34 60.29348 11.38798 7314 ft 258 kts 316°
2026-05-05 11:34 60.30409 11.35893 8126 ft 260 kts 292°
2026-05-05 11:34 60.30776 11.32326 8928 ft 264 kts 269°
2026-05-05 11:35 60.30483 11.28650 9762 ft 267 kts 259°
2026-05-05 11:35 60.30093 11.24917 10257 ft 282 kts 259°
2026-05-05 11:35 60.29684 11.20939 10473 ft 305 kts 259°
2026-05-05 11:35 60.29241 11.16592 10641 ft 328 kts 259°
2026-05-05 11:36 60.28769 11.11955 10925 ft 344 kts 259°
2026-05-05 11:36 60.28281 11.07181 11585 ft 349 kts 259°
2026-05-05 11:36 60.27788 11.02371 12345 ft 352 kts 259°
2026-05-05 11:36 60.27293 10.97526 13119 ft 354 kts 260°
2026-05-05 11:37 60.26791 10.92652 13867 ft 357 kts 260°
2026-05-05 11:37 60.26282 10.87753 14586 ft 358 kts 259°
2026-05-05 11:37 60.25771 10.82850 15382 ft 357 kts 259°
2026-05-05 11:37 60.25267 10.78041 16202 ft 355 kts 259°
2026-05-05 11:38 60.24753 10.73190 17039 ft 354 kts 259°
2026-05-05 11:38 60.24241 10.68346 17827 ft 354 kts 259°
2026-05-05 11:38 60.23726 10.63510 18501 ft 353 kts 259°
2026-05-05 11:38 60.23211 10.58678 19130 ft 352 kts 259°
2026-05-05 11:39 60.22700 10.53872 19795 ft 351 kts 259°
2026-05-05 11:39 60.22189 10.49091 20451 ft 349 kts 259°
2026-05-05 11:39 60.21680 10.44321 21110 ft 348 kts 259°
2026-05-05 11:39 60.20928 10.39772 21750 ft 349 kts 250°
2026-05-05 11:40 60.19986 10.35288 22407 ft 348 kts 250°
2026-05-05 11:40 60.19038 10.30823 23040 ft 347 kts 250°
2026-05-05 11:40 60.18085 10.26375 23615 ft 346 kts 250°
2026-05-05 11:40 60.17125 10.21927 24053 ft 347 kts 250°
2026-05-05 11:41 60.16164 10.17466 24425 ft 349 kts 250°
2026-05-05 11:41 60.15194 10.12978 24761 ft 352 kts 250°
2026-05-05 11:41 60.14218 10.08458 25084 ft 354 kts 250°
2026-05-05 11:41 60.13235 10.03897 25418 ft 357 kts 250°
2026-05-05 11:42 60.12255 9.99372 25747 ft 360 kts 250°
2026-05-05 11:42 60.11248 9.94745 26052 ft 364 kts 250°
2026-05-05 11:42 60.10232 9.90083 26391 ft 366 kts 250°
2026-05-05 11:42 60.09210 9.85379 26650 ft 369 kts 250°
2026-05-05 11:43 60.08183 9.80668 27056 ft 369 kts 250°
2026-05-05 11:43 60.07154 9.75951 27418 ft 370 kts 250°
2026-05-05 11:43 60.06127 9.71241 27873 ft 369 kts 250°
2026-05-05 11:43 60.05097 9.66545 28350 ft 368 kts 250°
2026-05-05 11:44 60.04079 9.61917 28807 ft 368 kts 250°
2026-05-05 11:44 60.03047 9.57244 29243 ft 367 kts 250°
2026-05-05 11:44 60.02011 9.52582 29684 ft 367 kts 250°
2026-05-05 11:44 60.00973 9.47932 30069 ft 366 kts 250°
2026-05-05 11:45 59.99934 9.43280 30408 ft 367 kts 250°
2026-05-05 11:45 59.98894 9.38610 30700 ft 368 kts 250°
2026-05-05 11:45 59.97851 9.33930 30937 ft 370 kts 250°
2026-05-05 11:45 59.96799 9.29229 31232 ft 372 kts 250°
2026-05-05 11:46 59.95735 9.24509 31524 ft 373 kts 250°
2026-05-05 11:46 59.94667 9.19797 31811 ft 373 kts 250°
2026-05-05 11:46 59.93600 9.15076 32127 ft 374 kts 250°
2026-05-05 11:46 59.92549 9.10405 32409 ft 375 kts 250°
2026-05-05 11:47 59.91479 9.05646 32690 ft 376 kts 250°
2026-05-05 11:47 59.90406 9.00879 32948 ft 378 kts 250°
2026-05-05 11:47 59.89324 8.96097 33213 ft 380 kts 249°
2026-05-05 11:47 59.88232 8.91304 33493 ft 381 kts 249°
2026-05-05 11:48 59.85435 8.79117 34126 ft 382 kts 249°
2026-05-05 11:48 59.83218 8.69487 34546 ft 385 kts 249°
2026-05-05 11:48 59.80973 8.59788 34950 ft 388 kts 248°
2026-05-05 11:49 59.78737 8.50164 35413 ft 388 kts 248°
2026-05-05 11:49 59.76467 8.40440 35886 ft 389 kts 248°
2026-05-05 11:49 59.71081 8.21541 35956 ft 399 kts 239°
2026-05-05 11:50 59.64701 8.03623 35971 ft 398 kts 239°
2026-05-05 11:50 59.58289 7.85714 35981 ft 400 kts 239°
2026-05-05 11:51 59.51832 7.67858 35989 ft 404 kts 238°
2026-05-05 11:51 59.45280 7.49845 36019 ft 405 kts 238°
2026-05-05 11:52 59.38690 7.31876 35970 ft 406 kts 238°
2026-05-05 11:52 59.32102 7.14058 36015 ft 407 kts 238°
2026-05-05 11:53 59.25415 6.96130 36022 ft 410 kts 238°
2026-05-05 11:53 59.18670 6.78131 36028 ft 411 kts 238°
2026-05-05 11:54 59.11888 6.60184 36009 ft 411 kts 237°
2026-05-05 11:54 59.05074 6.42318 36032 ft 411 kts 237°
2026-05-05 11:55 58.98286 6.24619 36054 ft 411 kts 237°
2026-05-05 11:55 58.91427 6.06889 36055 ft 411 kts 237°
2026-05-05 11:56 58.84557 5.89256 36030 ft 410 kts 237°
2026-05-05 11:56 58.77688 5.71749 36043 ft 409 kts 237°
2026-05-05 11:57 58.70828 5.54459 36043 ft 409 kts 237°
2026-05-05 11:57 58.63919 5.37072 36047 ft 409 kts 237°
2026-05-05 11:58 58.56981 5.19789 36057 ft 409 kts 236°
2026-05-05 11:58 58.50010 5.02557 36058 ft 409 kts 236°
2026-05-05 11:59 58.43065 4.85490 36057 ft 410 kts 236°
2026-05-05 11:59 58.36034 4.68326 36038 ft 410 kts 236°
2026-05-05 12:00 58.28966 4.51256 36062 ft 411 kts 236°
2026-05-05 12:00 58.21884 4.34259 36070 ft 410 kts 236°
2026-05-05 12:01 58.14784 4.17274 36068 ft 411 kts 236°
2026-05-05 12:01 58.07684 4.00472 36064 ft 412 kts 235°
2026-05-05 12:02 58.00516 3.83603 36074 ft 412 kts 235°
2026-05-05 12:02 57.93313 3.66795 36076 ft 412 kts 235°
2026-05-05 12:03 57.85409 3.51037 36033 ft 416 kts 229°
2026-05-05 12:03 57.77191 3.35948 36062 ft 417 kts 229°
2026-05-05 12:04 57.68863 3.20856 36072 ft 417 kts 229°
2026-05-05 12:04 57.60522 3.05793 36037 ft 417 kts 228°
2026-05-05 12:05 57.52168 2.90824 36053 ft 417 kts 228°
2026-05-05 12:05 57.43834 2.75985 36026 ft 418 kts 228°
2026-05-05 12:06 57.35433 2.61093 36034 ft 418 kts 228°
2026-05-05 12:06 57.27000 2.46255 36026 ft 419 kts 227°
2026-05-05 12:07 57.18515 2.31463 36045 ft 420 kts 227°
2026-05-05 12:07 57.10019 2.16721 36045 ft 420 kts 227°
2026-05-05 12:08 57.01530 2.02113 36023 ft 422 kts 227°
2026-05-05 12:08 56.92946 1.87430 36036 ft 423 kts 227°
2026-05-05 12:09 56.84330 1.72756 36044 ft 423 kts 226°
2026-05-05 12:09 56.75677 1.58165 36023 ft 424 kts 226°
2026-05-05 12:10 56.67031 1.43684 36034 ft 425 kts 226°
2026-05-05 12:10 56.58318 1.29151 36038 ft 425 kts 226°
2026-05-05 12:11 56.49586 1.14665 36030 ft 425 kts 225°
2026-05-05 12:11 56.40838 1.00246 36030 ft 426 kts 225°
2026-05-05 12:12 56.32038 0.85903 36042 ft 426 kts 225°
2026-05-05 12:12 56.23300 0.71701 36020 ft 426 kts 225°
2026-05-05 12:13 56.16542 0.60796 36035 ft 426 kts 225°
2026-05-05 12:13 56.12137 0.53682 36035 ft 426 kts 225°
2026-05-05 12:14 56.07715 0.46597 36030 ft 427 kts 225°
2026-05-05 12:14 56.03314 0.39563 36036 ft 427 kts 224°
2026-05-05 12:15 55.98879 0.32504 36033 ft 427 kts 224°
2026-05-05 12:15 55.94434 0.25459 36034 ft 427 kts 224°
2026-05-05 12:16 55.89992 0.18429 36039 ft 427 kts 224°
2026-05-05 12:16 55.85574 0.11453 36039 ft 427 kts 224°
2026-05-05 12:17 55.81125 0.04455 36037 ft 427 kts 224°
2026-05-05 12:17 55.76671 -0.02526 36014 ft 427 kts 224°
2026-05-05 12:18 55.72207 -0.09505 36016 ft 428 kts 224°
2026-05-05 12:18 55.67731 -0.16474 36020 ft 428 kts 224°
2026-05-05 12:19 55.63281 -0.23380 36024 ft 429 kts 224°
2026-05-05 12:19 55.58795 -0.30334 36043 ft 429 kts 224°
2026-05-05 12:20 55.54306 -0.37270 36038 ft 429 kts 224°
2026-05-05 12:20 55.49810 -0.44189 36019 ft 429 kts 223°
2026-05-05 12:21 55.45331 -0.51056 36027 ft 430 kts 223°
2026-05-05 12:21 55.40816 -0.57946 36035 ft 430 kts 223°
2026-05-05 12:22 55.36297 -0.64836 36042 ft 430 kts 223°
2026-05-05 12:22 55.31768 -0.71715 36047 ft 430 kts 223°
2026-05-05 12:23 55.27236 -0.78570 36052 ft 430 kts 223°
2026-05-05 12:23 55.22726 -0.85376 36034 ft 431 kts 223°
2026-05-05 12:24 55.18176 -0.92207 36052 ft 431 kts 223°
2026-05-05 12:24 55.13628 -0.99041 36055 ft 431 kts 223°
2026-05-05 12:25 55.09085 -1.05847 35816 ft 428 kts 223°
2026-05-05 12:25 55.06863 -1.09161 35587 ft 425 kts 223°
2026-05-05 12:25 55.04619 -1.12502 35344 ft 424 kts 223°
2026-05-05 12:26 55.02373 -1.15844 35032 ft 424 kts 223°
2026-05-05 12:26 55.00131 -1.19173 34606 ft 423 kts 223°
2026-05-05 12:26 54.97892 -1.22494 34188 ft 423 kts 222°
2026-05-05 12:26 54.95655 -1.25809 33701 ft 423 kts 222°
2026-05-05 12:27 54.93416 -1.29122 33213 ft 423 kts 222°
2026-05-05 12:27 54.91172 -1.32433 32732 ft 424 kts 222°
2026-05-05 12:27 54.88920 -1.35754 32251 ft 424 kts 222°
2026-05-05 12:27 54.86680 -1.39052 31798 ft 421 kts 222°
2026-05-05 12:28 54.84479 -1.42285 31367 ft 419 kts 222°
2026-05-05 12:28 54.82262 -1.45533 30937 ft 416 kts 223°
2026-05-05 12:28 54.80056 -1.48764 30515 ft 413 kts 223°
2026-05-05 12:28 54.77870 -1.51967 30095 ft 410 kts 223°
2026-05-05 12:29 54.75698 -1.55146 29636 ft 408 kts 223°
2026-05-05 12:29 54.73536 -1.58303 29153 ft 405 kts 222°
2026-05-05 12:29 54.71385 -1.61437 28712 ft 404 kts 222°
2026-05-05 12:29 54.69271 -1.64509 28281 ft 401 kts 222°
2026-05-05 12:30 54.67142 -1.67589 27854 ft 398 kts 222°
2026-05-05 12:30 54.65029 -1.70643 27325 ft 395 kts 222°
2026-05-05 12:30 54.62934 -1.73675 26806 ft 391 kts 222°
2026-05-05 12:30 54.60853 -1.76682 26292 ft 388 kts 222°
2026-05-05 12:31 54.58792 -1.79656 25792 ft 385 kts 222°
2026-05-05 12:31 54.56701 -1.82510 25294 ft 383 kts 216°
2026-05-05 12:31 54.54384 -1.84782 24793 ft 383 kts 207°
2026-05-05 12:31 54.51871 -1.86333 24307 ft 385 kts 197°
2026-05-05 12:32 54.49245 -1.87223 23848 ft 384 kts 193°
2026-05-05 12:32 54.46656 -1.88016 23344 ft 382 kts 193°
2026-05-05 12:32 54.44050 -1.88830 22832 ft 380 kts 193°
2026-05-05 12:32 54.41458 -1.89651 22324 ft 378 kts 193°
2026-05-05 12:33 54.38881 -1.90467 21844 ft 375 kts 193°
2026-05-05 12:33 54.36317 -1.91271 21368 ft 373 kts 193°
2026-05-05 12:33 54.33777 -1.92065 20902 ft 370 kts 193°
2026-05-05 12:33 54.31256 -1.92853 20444 ft 367 kts 193°
2026-05-05 12:34 54.28751 -1.93633 20006 ft 365 kts 193°
2026-05-05 12:34 54.26262 -1.94473 19561 ft 362 kts 198°
2026-05-05 12:34 54.23938 -1.95998 19119 ft 356 kts 210°
2026-05-05 12:34 54.21890 -1.98293 18681 ft 349 kts 221°
2026-05-05 12:35 54.20197 -2.01203 18290 ft 342 kts 233°
2026-05-05 12:35 54.18830 -2.04477 17888 ft 334 kts 236°
2026-05-05 12:35 54.17531 -2.07650 17481 ft 328 kts 236°
2026-05-05 12:35 54.16226 -2.10813 17081 ft 324 kts 236°
2026-05-05 12:36 54.14917 -2.13920 16683 ft 321 kts 234°
2026-05-05 12:36 54.13571 -2.16927 16290 ft 317 kts 233°
2026-05-05 12:36 54.12210 -2.19871 15878 ft 315 kts 233°
2026-05-05 12:36 54.10853 -2.22776 15468 ft 310 kts 233°
2026-05-05 12:37 54.09517 -2.25636 15081 ft 307 kts 233°
2026-05-05 12:37 54.08193 -2.28484 14675 ft 307 kts 233°
2026-05-05 12:37 54.06889 -2.31294 14268 ft 306 kts 233°
2026-05-05 12:37 54.05577 -2.34130 13828 ft 302 kts 233°
2026-05-05 12:38 54.04291 -2.36919 13350 ft 299 kts 234°
2026-05-05 12:38 54.02938 -2.39620 12884 ft 301 kts 224°
2026-05-05 12:38 54.01205 -2.41620 12458 ft 304 kts 206°
2026-05-05 12:38 53.99177 -2.42610 12061 ft 305 kts 188°
2026-05-05 12:39 53.97053 -2.42517 11671 ft 306 kts 173°
2026-05-05 12:39 53.94951 -2.41979 11294 ft 305 kts 173°
2026-05-05 12:39 53.92858 -2.41447 10921 ft 304 kts 173°
2026-05-05 12:39 53.90774 -2.40919 10552 ft 302 kts 173°
2026-05-05 12:40 53.88724 -2.40401 10193 ft 301 kts 173°
2026-05-05 12:40 53.86657 -2.39882 9822 ft 300 kts 173°
2026-05-05 12:40 53.84601 -2.39367 9458 ft 298 kts 173°
2026-05-05 12:40 53.82555 -2.38854 9083 ft 297 kts 173°
2026-05-05 12:41 53.80522 -2.38343 8710 ft 292 kts 172°
2026-05-05 12:41 53.78551 -2.37845 8338 ft 280 kts 172°
2026-05-05 12:41 53.76662 -2.37370 8052 ft 268 kts 172°
2026-05-05 12:41 53.74842 -2.36913 8040 ft 265 kts 172°
2026-05-05 12:42 53.73011 -2.36457 8044 ft 266 kts 172°
2026-05-05 12:42 53.71185 -2.36002 8042 ft 265 kts 173°
2026-05-05 12:42 53.69388 -2.35553 8046 ft 265 kts 172°
2026-05-05 12:42 53.67573 -2.35094 8045 ft 264 kts 173°
2026-05-05 12:43 53.65759 -2.35150 8043 ft 261 kts 198°
2026-05-05 12:43 53.64166 -2.36539 8050 ft 259 kts 218°
2026-05-05 12:43 53.62731 -2.38373 8048 ft 259 kts 220°
2026-05-05 12:43 53.61325 -2.40266 8047 ft 259 kts 220°
2026-05-05 12:44 53.59916 -2.42159 8046 ft 259 kts 220°
2026-05-05 12:44 53.58509 -2.44045 8045 ft 259 kts 220°
2026-05-05 12:44 53.57094 -2.45927 8046 ft 259 kts 220°
2026-05-05 12:44 53.55687 -2.47813 8010 ft 260 kts 220°
2026-05-05 12:45 53.54288 -2.49696 7704 ft 260 kts 220°
2026-05-05 12:45 53.52886 -2.51601 7401 ft 258 kts 220°
2026-05-05 12:45 53.51493 -2.53493 7109 ft 257 kts 220°
2026-05-05 12:45 53.50109 -2.55375 6840 ft 255 kts 220°
2026-05-05 12:46 53.48732 -2.57253 6568 ft 254 kts 220°
2026-05-05 12:46 53.47364 -2.59132 6326 ft 255 kts 220°
2026-05-05 12:46 53.45985 -2.61012 6119 ft 256 kts 220°
2026-05-05 12:46 53.44596 -2.62885 5896 ft 257 kts 220°
2026-05-05 12:47 53.43205 -2.64743 5688 ft 256 kts 220°
2026-05-05 12:47 53.41812 -2.66586 5478 ft 253 kts 220°
2026-05-05 12:47 53.40344 -2.68142 5270 ft 248 kts 199°
2026-05-05 12:47 53.38632 -2.68426 5064 ft 251 kts 175°
2026-05-05 12:48 53.36905 -2.68047 4861 ft 249 kts 171°
2026-05-05 12:48 53.35221 -2.67593 4652 ft 248 kts 170°
2026-05-05 12:48 53.33520 -2.67119 4432 ft 249 kts 170°
2026-05-05 12:48 53.31803 -2.66638 4219 ft 250 kts 170°
2026-05-05 12:49 53.30080 -2.66149 4074 ft 252 kts 170°
2026-05-05 12:49 53.28366 -2.65659 4008 ft 247 kts 170°
2026-05-05 12:49 53.26652 -2.65177 3824 ft 250 kts 170°
2026-05-05 12:49 53.24930 -2.64682 3588 ft 253 kts 170°
2026-05-05 12:50 53.23209 -2.64090 3361 ft 251 kts 158°
2026-05-05 12:50 53.21834 -2.62512 3165 ft 238 kts 127°
2026-05-05 12:50 53.21206 -2.60127 3042 ft 216 kts 92°
2026-05-05 12:50 53.21214 -2.57709 3013 ft 205 kts 81°
2026-05-05 12:51 53.21503 -2.55470 3015 ft 192 kts 62°
2026-05-05 12:51 53.22207 -2.53647 3017 ft 185 kts 47°
2026-05-05 12:51 53.23017 -2.51994 3015 ft 183 kts 47°
2026-05-05 12:51 53.23824 -2.50344 3015 ft 183 kts 48°
2026-05-05 12:52 53.24630 -2.48694 2883 ft 183 kts 47°
2026-05-05 12:52 53.25430 -2.47053 2668 ft 182 kts 47°
2026-05-05 12:52 53.26221 -2.45428 2451 ft 178 kts 48°
2026-05-05 12:52 53.26990 -2.43849 2206 ft 174 kts 47°
2026-05-05 12:53 53.27746 -2.42296 1962 ft 171 kts 47°
2026-05-05 12:53 53.28483 -2.40780 1745 ft 162 kts 47°
2026-05-05 12:53 53.29163 -2.39377 1520 ft 149 kts 47°
2026-05-05 12:53 53.29797 -2.38055 1310 ft 144 kts 49°
2026-05-05 12:54 53.31032 -2.35537 875 ft 139 kts 45°
2026-05-05 12:54 53.31639 -2.34293 715 ft 137 kts 47°
2026-05-05 12:54 53.32238 -2.33058 538 ft 136 kts 47°
2026-05-05 12:55 53.32830 -2.31825 374 ft 136 kts 48°
2026-05-05 12:55 53.33427 -2.30601 248 ft 135 kts 48°
2026-05-05 12:55 53.33942 -2.29533 227 ft 96 kts 51°
2026-05-05 12:55 53.34254 -2.28887 227 ft 47 kts 50°
2026-05-05 12:56 53.34448 -2.28589 227 ft 30 kts 28°
2026-05-05 12:56 53.34580 -2.28493 228 ft 16 kts 22°
2026-05-05 12:56 53.34657 -2.28440 230 ft 11 kts 22°